Overview Statistics Trail Chart Weather Telemetry Raw packets
 

This is the latest recevied weather packets stored in our database for station/object OE3APM-13. If no packets are shown the sender has not sent any weather packets the latest 10 day(s).

<< 94 95 96 97 98 99 100 >>
Time Temp. Humidity Pressure Rain* Wind** Luminosity Snow
1787917959 30° C 44% 1013.4 hPa 0 mm - 677 W/m² -
1787917658 29.44° C 43% 1013.4 hPa 0 mm - 686 W/m² -
1787917360 29.44° C 43% 1013.3 hPa 0 mm - 696 W/m² -
1787917058 29.44° C 43% 1013.3 hPa 0 mm - 642 W/m² -
1787916760 29.44° C 44% 1013.4 hPa 0 mm - 687 W/m² -
1787916459 29.44° C 44% 1013.3 hPa 0 mm - 715 W/m² -
1787916158 28.89° C 44% 1013.4 hPa 0 mm - 629 W/m² -
1787915859 28.89° C 44% 1013.4 hPa 0 mm - 691 W/m² -
1787915567 28.33° C 45% 1013.6 hPa 0 mm - 726 W/m² -
1787915260 28.33° C 45% 1013.6 hPa 0 mm - 621 W/m² -
1787914956 28.33° C 46% 1013.4 hPa 0 mm - 485 W/m² -
1787914657 28.33° C 45% 1013.4 hPa 0 mm - 580 W/m² -
1787914350 27.78° C 46% 1013.5 hPa 0 mm - 733 W/m² -
1787914051 27.78° C 45% 1013.4 hPa 0 mm - 721 W/m² -
1787913750 27.78° C 45% 1013.3 hPa 0 mm - 712 W/m² -
1787913450 27.78° C 45% 1013.5 hPa 0 mm - 710 W/m² -
1787913151 27.78° C 45% 1013.5 hPa 0 mm - 703 W/m² -
1787912850 27.78° C 46% 1013.3 hPa 0 mm - 701 W/m² -
1787912551 27.22° C 47% 1013.6 hPa 0 mm - 698 W/m² -
1787912249 27.22° C 46% 1013.5 hPa 0 mm - 698 W/m² -
1787911950 26.67° C 48% 1013.6 hPa 0 mm - 686 W/m² -
1787911648 26.67° C 47% 1013.6 hPa 0 mm - 671 W/m² -
1787911349 26.67° C 47% 1013.7 hPa 0 mm - 680 W/m² -
1787911051 26.67° C 47% 1014 hPa 0 mm - 677 W/m² -
1787910746 26.67° C 48% 1014 hPa 0 mm - 677 W/m² -

* Rain latest hour (hover to see other rain measurements)
** Current wind speed in m/s (hover to see current wind gust speed)